Location: Capvern
(43.1036°N, 0.3160°E)
Time: 22:04:11
(UTC+00:00)

Cosmos 1703 - Pass Details

Date: 16 October 2021
Orbit: 521 x 539 km, 82.5° (Epoch: 04 December)

Event Time Altitude Azimuth Distance (km) Brightness Sun altitude
Rises 18:02:02 0° 0° (N) 2,697 6.8 -9.5°
Reaches altitude 10° 18:04:22 10° 11° (N) 1,797 5.8 -9.9°
Maximum altitude 18:07:57 33° 76° (ENE) 917 3.9 -10.6°
Drops below altitude 10° 18:11:30 10° 141° (SE) 1,774 5.6 -11.2°
Sets 18:13:47 0° 151° (SSE) 2,655 6.5 -11.6°
